Flag for Russia Weather past 2 weeks in Yekaterinburg, Russia

Now
12 °F

More clouds than sun.


Feels Like: -3 °F
Forecast: 8 / 18 °F
Wind: 13 mph from Southeast

Location: Ekaterinburg

Current Time: Dec 29, 2014 at 1:18:19 PM

Latest Report: Dec 29, 2014 at 1:00 PM


Visibility: N/A

Pressure: 30.07 "Hg

Humidity: 79%

Dew point: 7 °F

Location of YekaterinburgLocation

Historic Weather in Yekaterinburg — Graph

°F

Yekaterinburg temperature yesterday

Maximum temperature yesterday: 10 °F (at 1:00 PM)
Minimum temperature yesterday: -8 °F (at 11:30 PM)
Average temperature yesterday: 5 °F

Past Weeks' High & Low Weather Summary

 TemperatureHumidityPressure
High36 °F (Dec 21, 7:30 PM)100% (Dec 16, 1:00 AM)30.42 "Hg (Dec 16, 1:00 AM)
Low-8 °F (Dec 28, 11:30 PM)60% (Dec 19, 8:00 AM)29.27 "Hg (Dec 25, 1:30 PM)
Average21 °F88%29.89 "Hg
* Reported Dec 14 12:00 Noon — Dec 29 12:00 Noon, Yekaterinburg, Weather by CustomWeather, © 2014

Note: Actual official high and low records may vary slightly from our data, if they occured in-between our weather recording intervals... More about our weather records

Advertising

Yekaterinburg weather history for previous 24 hours

 ConditionsComfort  
Time TempWeatherWind HumidityBarometerVisibility
12:00 PM
Dec 29
9 °FMore clouds than sun.10 mph85%30.12 "HgN/A
11:30 AM9 °FSnow flurries. Mostly cloudy.13 mph85%30.12 "Hg3 mi
11:00 AM7 °FSnow showers. Mostly cloudy.13 mph92%30.15 "Hg1 mi
10:30 AM7 °FMostly cloudy.10 mph85%30.15 "HgN/A
10:00 AM7 °FClear.8 mph85%30.18 "Hg10 mi
9:30 AM5 °FOvercast.8 mph92%30.18 "HgN/A
9:00 AM5 °FClear.10 mph85%30.21 "Hg10 mi
8:30 AM5 °FClear.10 mph85%30.21 "Hg10 mi
8:00 AM5 °FClear.8 mph85%30.21 "Hg10 mi
7:30 AM5 °FClear.6 mph85%30.24 "Hg10 mi
7:00 AM3 °FClear.8 mph92%30.24 "Hg10 mi
6:30 AM3 °FClear.6 mph85%30.27 "Hg10 mi
6:00 AM1 °FClear.6 mph92%30.27 "Hg10 mi
5:30 AM1 °FClear.3 mph85%30.30 "Hg10 mi
5:00 AM0 °FClear.3 mph92%30.30 "Hg10 mi
4:30 AM0 °FClear.3 mph92%30.30 "Hg10 mi
4:00 AM0 °FClear.3 mph92%30.30 "Hg10 mi
3:30 AM-2 °FClear.1 mph84%30.33 "Hg10 mi
3:00 AM-2 °FOvercast.1 mph84%30.33 "Hg4 mi
2:30 AM-4 °FClear.No wind92%30.36 "Hg10 mi
2:00 AM-6 °FClear.No wind84%30.36 "Hg10 mi
1:30 AM-4 °FClear.No wind84%30.36 "Hg10 mi
1:00 AM-4 °FClear.3 mph84%30.36 "Hg10 mi
12:30 AM-6 °FClear.3 mph92%30.36 "Hg10 mi
12:00 AM-8 °FClear.1 mph92%30.39 "Hg10 mi
11:30 PM
Dec 28
-8 °FClear.No wind84%30.39 "Hg10 mi
11:00 PM-4 °FClear.No wind92%30.39 "Hg10 mi
10:30 PM-4 °FClear.No wind92%30.39 "Hg10 mi
10:00 PM-6 °FClear.No wind84%30.39 "Hg10 mi
9:30 PM-2 °FPassing clouds.No wind92%30.39 "Hg4 mi
9:00 PM0 °FPassing clouds.3 mph84%30.39 "Hg4 mi
8:30 PM0 °FClear.3 mph84%30.39 "Hg10 mi
8:00 PM0 °FClear.3 mph84%30.39 "Hg10 mi
7:30 PM1 °FClear.3 mph92%30.39 "Hg10 mi
7:00 PM3 °FClear.6 mph85%30.39 "Hg10 mi
6:30 PM3 °FClear.6 mph85%30.39 "Hg10 mi
6:00 PM3 °FClear.3 mph85%30.39 "Hg10 mi
5:30 PM5 °FClear.3 mph78%30.39 "Hg10 mi
5:00 PM5 °FSunny.3 mph85%30.39 "Hg10 mi
4:30 PM7 °FSunny.6 mph78%30.36 "Hg10 mi
4:00 PM7 °FSunny.3 mph78%30.36 "Hg10 mi
3:30 PM7 °FSunny.6 mph78%30.36 "Hg10 mi
3:00 PM9 °FSunny.10 mph78%30.36 "Hg10 mi
2:30 PM9 °FSunny.10 mph78%30.36 "Hg10 mi
2:00 PM9 °FSunny.10 mph72%30.36 "Hg10 mi
1:30 PM9 °FSunny.10 mph72%30.33 "Hg10 mi
1:00 PM10 °FSunny.10 mph72%30.33 "Hg10 mi
Weather by CustomWeather, © 2014

See weather overviewHow to use our weather pages